STARLINK-1454 (45671 NORAD) Tracking and Keplerian Element Data

This shows tracking and keplerian element data for the satellite.

Feedback or suggestion? Click here.




ElementValue
Catalog45671
NameSTARLINK-1454
Epoch Orbit567
Epoch Day186.50001157
Epoch Year2020
RAAN20.5193
Inclination52.9996
Eccentricity0.0001149
Argument of Perigee83.7499
Mean Anonmoly324.2273
Mean Motion15.44322678
Decay Rate-0.010901
L11 45671U 20035Q 20186.50001157 -.01090100 00000-0 -25363-1 0 9992
L22 45671 52.9996 20.5193 0001149 83.7499 324.2273 15.44322678 5673

Live tracking and technical data element details for STARLINK-1454 (NORAD 45671). STARLINK-1454 can be tracked NOW for your location showing map with azimuth and elevation plus other details from your city location.

Track the satellite on the map from your city or location and see movement details for azimuth, elevation, latitude, longitude, range, height, and movement on the map or in text.







IsCatalogInMostPopularTable: catalog: 45671, numindb: 4
Update: records affected: 1



GetName: 45671 STARLINK-1454

Hit Count: updated at: Sun, 05 Jul 2020 15:51:12 GMT